Regional Weather Roundup
Issued by NWS State College, PA

Home | Current Version | Previous Version | Graphics & Text | Print | Product List | Glossary Off
Versions: 1 2 3 4 5 6 7 8 9 10 11 12 13 14 15 16 17 18 19 20 21 22 23 24 25 26 27 28 29 30 31 32 33 34 35 36 37 38 39 40 41 42 43 44 45 46 47 48 49 50

093
ASUS41 KCTP 260510
RWRCTP

REGIONAL WEATHER ROUNDUP
NATIONAL WEATHER SERVICE STATE COLLEGE PA
100 AM EDT SUN MAR 26 2017

Note: "fair" indicates few or no clouds below 12,000 feet with no
significant weather and/or obstructions to visibility.

* = STATION THAT DOES NOT REPORT PRECIPITATION /E.G. RAIN...SNOW...ETC/
    THUNDER OR FOG.

PAZ002>004-007>009-013>016-020>023-029>032-260600-
WESTERN PENNSYLVANIA

CITY           SKY/WX    TMP DP  RH WIND       PRES   REMARKS
ERIE           MOCLDY    38  35  89 NE10      30.17F
MEADVILLE      CLEAR     52  47  83 E8        30.14F
FRANKLIN*      CLOUDY    54  46  76 E8        30.17S
NEW CASTLE     CLOUDY    59  52  77 E5        30.13F
BEAVER COUNTY  NOT AVBL
BUTLER*        MOCLDY    59  50  72 E8        30.15S
PITTSBURGH INT MOCLDY    61  52  72 E7        30.11F
PITTSBURGH     CLOUDY    62  49  62 E8        30.12S
INDIANA*       PTCLDY    55  48  76 E10       30.19F
LATROBE        CLOUDY    59  50  72 N5        30.14S
WASHINGTON CO* CLOUDY    55  48  76 CALM      30.14S
$$

PAZ004>006-010>012-017>019-024>028-033>037-041-042-045-046-049>053-260600-
CENTRAL PENNSYLVANIA

CITY           SKY/WX    TMP DP  RH WIND       PRES   REMARKS
BRADFORD       PTCLDY    41  38  89 E6        30.22S
DUBOIS         CLOUDY    47  40  76 E10       30.18F
CLEARFIELD       N/A    N/A N/A N/A MISG      30.24S
JOHNSTOWN      CLOUDY    51  46  83 E8        30.17F
ALTOONA        MOCLDY    50  45  83 NE8       30.22S
STATE COLLEGE  CLOUDY    40  38  91 NE7       30.26S
WILLIAMSPORT   CLOUDY    44  37  76 CALM      30.31S
SELINSGROVE    CLOUDY    45  41  86 NE8       30.31R
FT INDIANTOWN  PTCLDY    46  43  88 E9        30.30S
CAPITAL CITY   CLEAR     50  40  68 E9        30.28S
HARRISBURG     PTCLDY    50  42  74 E17       30.28R
YORK           CLOUDY    50  44  80 SE13      30.27R
$$

PAZ038>040-043-044-047-048-054-055-060>062-067>071-260600-
EASTERN PENNSYLVANIA

CITY           SKY/WX    TMP DP  RH WIND       PRES   REMARKS
SCRANTON       CLOUDY    42  39  89 E5        30.32S
MOUNT POCONO   CLOUDY    32  32 100 E13       30.31S
ALLENTOWN      CLOUDY    43  35  73 NE10      30.36S
QUAKERTOWN*    CLOUDY    45  39  81 E9        30.35S
READING        CLOUDY    47  41  80 E9        30.31F
LANCASTER      PTCLDY    47  42  83 E15       30.30S
COATESVILLE    CLOUDY    45  39  81 E18G31    30.32S
POTTSTOWN      CLOUDY    44  38  79 E7        30.36R
BLUE BELL      CLOUDY    43  37  81 E7        30.35R
DOYLESTOWN     CLOUDY    43  39  86 CALM      30.36R
WILLOW GROVE   NOT AVBL
NORTH PHILA    CLOUDY    45  39  79 E13       30.38R
PHILADELPHIA   CLOUDY    45  39  79 E12       30.35S
$$




USA.gov is the U.S. government's official web portal to all federal, state and local government web resources and services.